[[{"header":{"parameterUnit":"m.s-1","parameterCategory":2,"la1":30.2991,"la2":30.254,"lo1":-89.0895,"lo2":-89.0444,"dy":0.0017,"dx":0.0017,"nx":28,"ny":28,"refTime":"2023-08-05T21:00:00:Z","depth":"0","parameterNumber":2,"parameterNumberName":"U-component_of_CURRENTS"},"data":[0,0,0,0,0,0,0,0,0,0,0,0,0,0,0,0,0,0,0,0,0,0,0,0,0,0,0,0,0,0,0,0,0,0,0,0,0,0,0,0,0,0,0,0,0,0,0,0,0,0,0,0,0,0,0,0,0,0,0.2766,0.2767,0,0.2921,0.2923,0.2925,0.2983,0.2983,0.2982,0.2982,0.2998,0.2999,0.3,0,0,0,0,0,0,0,0,0,0,0,0,0,0.2485,0.249,0.2766,0.2768,0.2769,0.2921,0.2923,0.2925,0.2983,0.2983,0.2982,0.2981,0.2998,0.2999,0.3,0,0,0,0,0,0,0,0,0,0,0,0,0,0.2621,0.2492,0.2765,0.2816,0.2822,0.292,0.2923,0.2926,0.2983,0.2983,0.2982,0.2981,0.2997,0.2999,0.3,0.3026,0,0,0.3005,0.3005,0,0,0,0,0,0,0,0,0.2613,0.2631,0.2807,0.2813,0.282,0.2931,0.283,0.2952,0.2984,0.2923,0.2982,0.2981,0.2963,0.2967,0.3002,0.3027,0.3027,0.3005,0.3006,0.3006,0.3007,0,0,0,0,0,0,0,0.2604,0.2625,0.2828,0.2809,0.2817,0.2819,0.2838,0.2854,0.2944,0.2928,0.2933,0.2949,0.2965,0.3,0.3002,0.3028,0.3005,0.3006,0.3007,0.3008,0.3022,0.3021,0,0,0,0,0,0,0.2587,0.2617,0.2823,0.2833,0.2711,0.2825,0.2846,0.2897,0.2947,0.2955,0.2949,0.2951,0.2998,0.3,0.3002,0.2999,0.3006,0.3008,0.3009,0.3022,0.3022,0.3021,0,0,0,0,0,0,0.2581,0.2605,0.2817,0.2724,0.2752,0.2831,0.2887,0.29,0.2921,0.2964,0.2969,0.2954,0.2998,0.3,0.3035,0.3001,0.3008,0.301,0.3023,0.3022,0.3021,0.3015,0,0,0,0,0,0,0.2573,0.2603,0.2619,0.2725,0.2756,0.284,0.2888,0.2904,0.2933,0.2936,0.297,0.2973,0.2997,0.3033,0.3036,0.3003,0.3011,0.3024,0.3023,0.3022,0.3016,0.3015,0.3013,0,0,0,0,0,0.2563,0.2585,0.262,0.2644,0.2783,0.2839,0.2853,0.2907,0.2933,0.2926,0.2987,0.2971,0.3027,0.3036,0.3039,0.3005,0.3024,0.3023,0.3022,0.3017,0.3015,0.3013,0,0,0,0,0,0,0.2468,0.2597,0.2637,0.2698,0.2747,0.2847,0.2846,0.2896,0.2944,0.2946,0.2994,0.3001,0.3023,0.3014,0.3022,0.3004,0.3009,0.3009,0.3004,0.3002,0.3001,0.3018,0.3012,0,0,0,0,0,0.2458,0.2516,0.2614,0.2658,0.2674,0.2759,0.2786,0.283,0.2893,0.2914,0.295,0.2981,0.3025,0.3014,0.305,0.3039,0.3089,0.3009,0.3007,0.3006,0.3021,0.3105,0.3113,0.3018,0.3018,0.3018,0,0,0.2438,0.2512,0.2546,0.2641,0.2683,0.2711,0.2772,0.2804,0.2836,0.2905,0.294,0.2994,0.3031,0.3047,0.3046,0.3026,0.3056,0.3004,0.3004,0.302,0.3105,0.3115,0.3123,0.3017,0.3017,0.3017,0,0,0.2416,0.2479,0.2512,0.2543,0.2605,0.2657,0.2659,0.2747,0.2781,0.2834,0.2907,0.2951,0.2979,0.3021,0.3042,0.3043,0.3073,0.3019,0.2995,0.3076,0.3085,0.3094,0.3166,0.3181,0.2985,0.2985,0.2985,0,0.2376,0.2449,0.2517,0.2537,0.2558,0.2627,0.2641,0.2688,0.2782,0.2827,0.2824,0.2962,0.2971,0.3044,0.304,0.3039,0.3098,0.3003,0.3078,0.3088,0.3097,0.3168,0.3186,0.2984,0.2984,0.2984,0.2984,0,0.2392,0.2419,0.2421,0.2487,0.2511,0.2524,0.2595,0.2626,0.2675,0.2753,0.2841,0.2906,0.299,0.2974,0.3006,0.3069,0.3096,0.3098,0.309,0.3107,0.318,0.3198,0.2984,0.2984,0.2984,0.2984,0,0,0.235,0.2427,0.2418,0.2442,0.2484,0.2521,0.2543,0.262,0.268,0.2743,0.2835,0.2898,0.2969,0.3,0.3045,0.3082,0.3181,0.3104,0.3108,0.3188,0.3373,0.3238,0.3246,0.3209,0.3213,0.3215,0.3395,0,0.2325,0.2372,0.2411,0.2424,0.2438,0.2488,0.2523,0.26,0.2668,0.2766,0.2851,0.2951,0.2968,0.3017,0.3071,0.3175,0.323,0.3132,0.3332,0.3338,0.3229,0.3262,0.3092,0.3225,0.3414,0.3417,0.3419,0,0.2307,0.2342,0.237,0.2427,0.2438,0.2465,0.2549,0.2592,0.2721,0.2776,0.2888,0.2987,0.3094,0.3087,0.3279,0.3225,0.3304,0.3359,0.3368,0.3261,0.3237,0.3237,0.3252,0.315,0.3447,0.3445,0.3443,0,0.2255,0.2303,0.2339,0.235,0.2425,0.2455,0.2503,0.2607,0.2659,0.2801,0.2852,0.303,0.311,0.3247,0.3358,0.3343,0.3554,0.3547,0.3509,0.3502,0.3402,0.3378,0.3351,0.3688,0.3687,0.3687,0.3686,0,0.2205,0.2226,0.2331,0.2333,0.2398,0.2449,0.2522,0.2586,0.2683,0.2745,0.2873,0.2948,0.3154,0.3293,0.3399,0.3504,0.3599,0.3527,0.3542,0.3389,0.3362,0.3304,0.3296,0.3693,0.3692,0.3691,0.3689,0,0.2149,0.2202,0.2248,0.2334,0.2369,0.2423,0.2515,0.2565,0.2641,0.2717,0.2757,0.2926,0.3088,0.3273,0.3493,0.3524,0.3557,0.3662,0.3455,0.3439,0.325,0.3249,0.3226,0.3167,0.3655,0.3653,0.3651,0,0.2159,0.2168,0.2253,0.2276,0.2318,0.24,0.2442,0.2539,0.2575,0.2683,0.2711,0.2886,0.2978,0.3241,0.3365,0.3538,0.3498,0.3448,0.3359,0.3216,0.3231,0.3167,0.3116,0.3248,0.3243,0.3239,0.3236,0,0.2164,0.2183,0.2211,0.2234,0.2283,0.2345,0.2408,0.2434,0.2518,0.2558,0.261,0.2682,0.2899,0.3002,0.3201,0.3271,0.3261,0.3362,0.3293,0.2964,0.2823,0.2779,0.3157,0.3199,0.3203,0.3206,0.3208,0.3209,0.2191,0.219,0.219,0.2204,0.2234,0.2248,0.2256,0.2308,0.2339,0.2355,0.2482,0.2511,0.2665,0.2907,0.2948,0.2905,0.3018,0.2861,0.2898,0.2865,0.2701,0.2967,0.2957,0.2959,0.2961,0.2963,0.2964,0,0.2196,0.2158,0.216,0.214,0.2099,0.2156,0.2185,0.2156,0.2134,0.2205,0.2233,0.229,0.2372,0.2482,0.2555,0.2486,0.2414,0.2437,0.233,0.2328,0.2633,0.2498,0.2289,0.2289,0.2289,0.2289,0.229,0.229,0.2184,0.2152,0.2102,0.2005,0.1974,0.191,0.1901,0.1878,0.1899,0.1876,0.1881,0.1956,0.2119,0.2228,0.2177,0.2133,0.2076,0.1982,0.2064,0.2273,0.2316,0.2356,0.2222,0.1959,0.1959,0.1639,0.1637,0.1635]},{"header":{"parameterUnit":"m.s-1","parameterCategory":2,"la1":30.2991,"la2":30.254,"lo1":-89.0895,"lo2":-89.0444,"dy":0.0017,"dx":0.0017,"nx":28,"ny":28,"refTime":"2023-08-05T21:00:00:Z","depth":"0","parameterNumber":3,"parameterNumberName":"V-component_of_CURRENTS"},"data":[0,0,0,0,0,0,0,0,0,0,0,0,0,0,0,0,0,0,0,0,0,0,0,0,0,0,0,0,0,0,0,0,0,0,0,0,0,0,0,0,0,0,0,0,0,0,0,0,0,0,0,0,0,0,0,0,0,0,0.1082,0.1083,0,0.1181,0.1182,0.1183,0.1188,0.1187,0.1186,0.1185,0.1011,0.1007,0.1003,0,0,0,0,0,0,0,0,0,0,0,0,0,0.0923,0.0925,0.1082,0.1083,0.1085,0.1181,0.1182,0.1183,0.1188,0.1187,0.1186,0.1185,0.1012,0.1008,0.1003,0,0,0,0,0,0,0,0,0,0,0,0,0,0.1,0.0926,0.1081,0.1101,0.1104,0.1181,0.1182,0.1183,0.1188,0.1187,0.1185,0.1184,0.1014,0.1008,0.1002,0.0993,0,0,0.0985,0.0982,0,0,0,0,0,0,0,0,0.0996,0.1006,0.1097,0.11,0.1103,0.1173,0.1062,0.1107,0.1188,0.1153,0.1185,0.1184,0.1043,0.1035,0.1056,0.0984,0.0977,0.0984,0.0981,0.0978,0.0977,0,0,0,0,0,0,0,0.0991,0.1002,0.1118,0.1099,0.1103,0.1114,0.1123,0.1072,0.1096,0.1156,0.1157,0.1174,0.1042,0.1061,0.1051,0.0974,0.0984,0.0979,0.0976,0.0974,0.0866,0.0866,0,0,0,0,0,0,0.0986,0.0997,0.1114,0.1121,0.1049,0.1118,0.1128,0.115,0.1103,0.1098,0.1175,0.1174,0.1072,0.1057,0.1044,0.1041,0.0978,0.0973,0.097,0.0865,0.0866,0.0867,0,0,0,0,0,0,0.0982,0.0995,0.1111,0.1063,0.1079,0.1123,0.1146,0.1152,0.1175,0.1121,0.1109,0.1191,0.107,0.1052,0.1018,0.1033,0.097,0.0965,0.0865,0.0865,0.0866,0.1025,0,0,0,0,0,0,0.0977,0.0993,0.1002,0.1063,0.1082,0.1152,0.1148,0.1155,0.1188,0.1188,0.1131,0.1114,0.1068,0.1027,0.1012,0.1024,0.0961,0.0864,0.0865,0.0866,0.1019,0.1031,0.1041,0,0,0,0,0,0.0971,0.0983,0.1002,0.1016,0.1094,0.1153,0.1163,0.1187,0.119,0.1202,0.1178,0.1116,0.1022,0.1024,0.1006,0.1016,0.0863,0.0865,0.0866,0.1014,0.1029,0.1041,0,0,0,0,0,0,0.0922,0.0987,0.1009,0.1042,0.1095,0.1154,0.116,0.1195,0.1195,0.1181,0.1133,0.1116,0.1096,0.1028,0.1031,0.0985,0.0928,0.0926,0.1046,0.1059,0.107,0.1045,0.0956,0,0,0,0,0,0.0918,0.0944,0.1012,0.1042,0.1056,0.1114,0.114,0.117,0.1185,0.1186,0.1163,0.1117,0.109,0.1053,0.1016,0.0986,0.093,0.0974,0.0986,0.0996,0.0961,0.0916,0.0921,0.0871,0.0871,0.0871,0,0,0.0912,0.0951,0.0967,0.1034,0.1063,0.1099,0.1124,0.1166,0.1206,0.1159,0.1179,0.1162,0.1095,0.1083,0.1063,0.1023,0.0992,0.0997,0.1007,0.0965,0.0918,0.0923,0.0927,0.0872,0.0872,0.0872,0,0,0.0911,0.0937,0.0955,0.0993,0.1051,0.1089,0.1104,0.1174,0.1201,0.1232,0.1219,0.1207,0.116,0.1132,0.1104,0.114,0.1069,0.1132,0.1151,0.1111,0.1115,0.1117,0.1111,0.1111,0.1121,0.1121,0.1121,0,0.0891,0.0944,0.0972,0.0998,0.1031,0.1083,0.1119,0.1158,0.122,0.1244,0.1237,0.1223,0.1175,0.1162,0.1185,0.1164,0.1143,0.1118,0.1128,0.1129,0.1128,0.112,0.1118,0.1129,0.1128,0.1127,0.1127,0,0.0927,0.0952,0.0958,0.101,0.1043,0.1084,0.1141,0.118,0.1221,0.1271,0.1295,0.1268,0.125,0.125,0.1224,0.1213,0.1205,0.117,0.1102,0.1143,0.1132,0.1128,0.114,0.1137,0.1135,0.1133,0,0,0.0919,0.0972,0.0978,0.1008,0.1059,0.1105,0.1138,0.1209,0.1255,0.1292,0.1345,0.1317,0.1329,0.1295,0.1283,0.1239,0.1253,0.1208,0.1202,0.1215,0.1199,0.1174,0.1167,0.1236,0.1234,0.1233,0.1214,0,0.0939,0.1,0.102,0.1077,0.1107,0.1142,0.1183,0.1245,0.1293,0.1354,0.1341,0.1375,0.1342,0.1355,0.1315,0.1271,0.1238,0.1262,0.1139,0.1135,0.112,0.1158,0.1168,0.1148,0.1209,0.1208,0.1207,0,0.097,0.1014,0.107,0.113,0.1146,0.1186,0.1265,0.1311,0.1373,0.1408,0.1424,0.1438,0.1413,0.1375,0.1289,0.1316,0.1258,0.1209,0.1207,0.1106,0.1099,0.1101,0.1136,0.1006,0.1199,0.12,0.12,0,0.097,0.1045,0.1101,0.1123,0.1192,0.1225,0.127,0.1332,0.1384,0.1445,0.1484,0.147,0.1474,0.1386,0.1302,0.1301,0.12,0.1183,0.1106,0.1106,0.104,0.1035,0.0931,0.1096,0.1096,0.1096,0.1096,0,0.0971,0.1009,0.1118,0.1135,0.1227,0.1261,0.1339,0.1378,0.1442,0.1499,0.1518,0.1551,0.1471,0.1423,0.1326,0.1209,0.1217,0.11,0.1086,0.1103,0.1103,0.0922,0.087,0.1096,0.1096,0.1096,0.1096,0,0.092,0.0984,0.1051,0.1161,0.121,0.127,0.1375,0.1426,0.1485,0.1552,0.1571,0.1611,0.1553,0.1466,0.1337,0.1244,0.1065,0.1077,0.1122,0.1111,0.091,0.0867,0.0716,0.0702,0.0993,0.0992,0.0991,0,0.0901,0.0936,0.107,0.1131,0.1175,0.1283,0.1346,0.1433,0.1485,0.1579,0.1607,0.161,0.1612,0.1451,0.1295,0.1136,0.1036,0.1028,0.0997,0.0886,0.0828,0.0793,0.0791,0.1006,0.1006,0.1005,0.1005,0,0.088,0.0925,0.0983,0.1103,0.1192,0.1284,0.1384,0.1442,0.153,0.1601,0.1663,0.1677,0.1572,0.1447,0.1256,0.1136,0.0959,0.1012,0.0873,0.0796,0.0772,0.0757,0.1057,0.1001,0.1001,0.1001,0.1002,0.1002,0.0886,0.0919,0.1008,0.1107,0.1189,0.1267,0.1335,0.1446,0.1542,0.1651,0.167,0.1712,0.1547,0.1308,0.1155,0.0875,0.0901,0.0775,0.0731,0.0703,0.0677,0.0976,0.0909,0.0909,0.0909,0.0909,0.0909,0,0.0916,0.0948,0.1024,0.1125,0.1164,0.1225,0.1348,0.1418,0.1533,0.1648,0.1713,0.1651,0.1409,0.1186,0.0831,0.0629,0.0585,0.0509,0.0455,0.0468,0.0706,0.0691,0.0601,0.0602,0.0602,0.0602,0.0602,0.0602,0.0935,0.0997,0.1015,0.1089,0.1138,0.1211,0.1271,0.1393,0.1507,0.1635,0.1702,0.176,0.1608,0.0871,0.043,0.0343,0.0214,0.0178,0.0125,0.0263,0.0284,0.0304,0.0275,0.0099,0.0099,-0.0074,-0.0076,-0.0078]}],[{"header":{"parameterUnit":"m.s-1","parameterCategory":2,"la1":30.2991,"la2":30.254,"lo1":-89.0895,"lo2":-89.0444,"dy":0.0017,"dx":0.0017,"nx":28,"ny":28,"refTime":"2023-08-05T21:00:00:Z","depth":"2","parameterNumber":2,"parameterNumberName":"U-component_of_CURRENTS"},"data":[0,0,0,0,0,0,0,0,0,0,0,0,0,0,0,0,0,0,0,0,0,0,0,0,0,0,0,0,0,0,0,0,0,0,0,0,0,0,0,0,0,0,0,0,0,0,0,0,0,0,0,0,0,0,0,0,0,0,0.0607,0.0604,0,0.0492,0.0493,0.0494,0.0748,0.0753,0.0759,0.0764,0.1187,0.1193,0.1199,0,0,0,0,0,0,0,0,0,0,0,0,0,0.0772,0.0772,0.0608,0.0603,0.0599,0.0492,0.0493,0.0494,0.0747,0.0753,0.076,0.0767,0.1185,0.1193,0.12,0,0,0,0,0,0,0,0,0,0,0,0,0,0.0711,0.0772,0.0608,0.0692,0.0696,0.0492,0.0493,0.0494,0.0745,0.0754,0.0762,0.077,0.1183,0.1192,0.1201,0.1089,0,0,0.1229,0.1233,0,0,0,0,0,0,0,0,0.0714,0.0709,0.0683,0.0685,0.0689,0.0618,0.0704,0.071,0.0743,0.0756,0.0764,0.0774,0.1022,0.1045,0.1037,0.1109,0.1128,0.123,0.1235,0.1239,0.1242,0,0,0,0,0,0,0,0.0719,0.0712,0.0591,0.0678,0.0681,0.0638,0.0645,0.0705,0.0876,0.0756,0.0767,0.0706,0.1033,0.1027,0.105,0.1134,0.1229,0.1237,0.1243,0.1247,0.1386,0.1384,0,0,0,0,0,0,0.068,0.0717,0.0594,0.0584,0.0691,0.0628,0.0636,0.0656,0.0864,0.089,0.0699,0.0718,0.1008,0.1039,0.1067,0.1236,0.1239,0.1247,0.1253,0.1387,0.1385,0.1383,0,0,0,0,0,0,0.0686,0.0674,0.0598,0.0621,0.0605,0.0615,0.0635,0.0648,0.0736,0.0809,0.0856,0.0781,0.1016,0.1054,0.1136,0.1246,0.1252,0.126,0.1389,0.1387,0.1384,0.1392,0,0,0,0,0,0,0.0693,0.0679,0.0755,0.0621,0.0602,0.0581,0.0624,0.0639,0.0665,0.0694,0.0892,0.0934,0.1025,0.1121,0.1145,0.1258,0.1267,0.1392,0.1388,0.1385,0.1394,0.139,0.1387,0,0,0,0,0,0.0701,0.0762,0.0761,0.0747,0.0684,0.0579,0.0574,0.0621,0.0662,0.0731,0.0787,0.0933,0.1121,0.1123,0.1153,0.1273,0.1393,0.1389,0.1385,0.1396,0.1391,0.1387,0,0,0,0,0,0,0.0879,0.0784,0.0785,0.0822,0.0743,0.0616,0.0667,0.0639,0.0724,0.0801,0.0874,0.0917,0.1042,0.1101,0.1101,0.1288,0.1295,0.1297,0.1294,0.129,0.1286,0.1385,0.1275,0,0,0,0,0,0.0928,0.0937,0.0833,0.0837,0.0842,0.0754,0.0736,0.075,0.0737,0.0791,0.0881,0.0972,0.1017,0.1112,0.1179,0.1259,0.126,0.1356,0.1352,0.135,0.1439,0.1412,0.1416,0.137,0.137,0.137,0,0,0.0953,0.0909,0.0906,0.0869,0.0836,0.0836,0.0783,0.0784,0.0803,0.0819,0.0954,0.0969,0.1019,0.1117,0.1186,0.1212,0.1338,0.1344,0.1343,0.1437,0.1409,0.1414,0.1419,0.1368,0.1368,0.1369,0,0,0.0966,0.1025,0.105,0.1023,0.0978,0.0939,0.0948,0.0894,0.0957,0.0976,0.0989,0.1048,0.1144,0.1199,0.1226,0.123,0.1295,0.1263,0.1378,0.1347,0.1353,0.1358,0.1273,0.1271,0.1292,0.1292,0.1292,0,0.1035,0.1022,0.1029,0.1053,0.1022,0.0996,0.1007,0.1036,0.1006,0.1018,0.1072,0.1103,0.1198,0.1227,0.1273,0.1248,0.12,0.1397,0.1348,0.1354,0.136,0.1273,0.1271,0.1292,0.1292,0.1292,0.1292,0,0.103,0.1064,0.1075,0.1107,0.1123,0.1103,0.1121,0.1174,0.1209,0.1193,0.1249,0.1277,0.1315,0.1333,0.1346,0.1413,0.1346,0.1319,0.1375,0.1366,0.1271,0.1269,0.1292,0.1292,0.1292,0.1292,0,0,0.1033,0.1069,0.1063,0.1089,0.1145,0.1125,0.122,0.1225,0.1234,0.132,0.1308,0.1426,0.1446,0.1475,0.146,0.1487,0.1483,0.1467,0.1465,0.1412,0.1362,0.1249,0.1234,0.143,0.1432,0.1433,0.1247,0,0.101,0.1002,0.1057,0.1084,0.1103,0.1162,0.1205,0.1253,0.1288,0.1307,0.1378,0.1416,0.1492,0.1506,0.1548,0.1498,0.1494,0.1535,0.136,0.1356,0.1281,0.1237,0.122,0.105,0.1245,0.1245,0.1245,0,0.1,0.0968,0.0981,0.1028,0.1055,0.112,0.116,0.1205,0.1268,0.1304,0.1383,0.1414,0.1528,0.1553,0.1557,0.1569,0.1524,0.1471,0.1459,0.1388,0.1244,0.1106,0.1039,0.1241,0.1242,0.1242,0.1242,0,0.0931,0.0943,0.0928,0.0942,0.1008,0.1077,0.1146,0.1215,0.1229,0.1345,0.1352,0.1443,0.1483,0.1497,0.1492,0.1532,0.1394,0.1404,0.1226,0.1211,0.1196,0.1179,0.1385,0.1385,0.1386,0.1386,0.1387,0,0.0891,0.0896,0.0903,0.0914,0.0945,0.1042,0.1094,0.1185,0.1216,0.1248,0.139,0.1367,0.1484,0.1421,0.1434,0.1316,0.135,0.1272,0.1181,0.118,0.1165,0.1363,0.1363,0.1379,0.1381,0.1382,0.1383,0,0.091,0.0872,0.089,0.0917,0.0955,0.1019,0.1125,0.1107,0.119,0.1224,0.1289,0.1315,0.1286,0.1263,0.1206,0.1202,0.1114,0.1031,0.1002,0.0916,0.0967,0.0969,0.0883,0.0878,0.0874,0.0871,0.0868,0,0.0907,0.0891,0.0929,0.0941,0.1008,0.1067,0.1087,0.1147,0.1124,0.117,0.1157,0.1134,0.1086,0.0906,0.0837,0.0736,0.0875,0.0732,0.0869,0.1008,0.0927,0.0936,0.0943,0.0797,0.0793,0.0791,0.0788,0,0.0892,0.0927,0.0954,0.0951,0.0997,0.101,0.1063,0.1018,0.1066,0.1093,0.1092,0.1057,0.0832,0.0733,0.0551,0.0504,0.0781,0.0672,0.0804,0.0932,0.0913,0.0838,0.0851,0.0764,0.0767,0.0768,0.077,0.0771,0.0876,0.0897,0.0891,0.0969,0.0991,0.0981,0.1011,0.0965,0.0953,0.0928,0.0932,0.0881,0.0744,0.0441,0.0388,0.0397,0.0411,0.0576,0.0591,0.0607,0.0636,0.0612,0.0408,0.0408,0.0409,0.0409,0.0409,0,0.0784,0.082,0.0868,0.0903,0.0951,0.1017,0.0983,0.0931,0.0932,0.0844,0.0825,0.0673,0.0507,0.0438,0.038,0.0337,0.0368,0.0433,0.0567,0.0586,0.0604,0.0643,0.0412,0.0413,0.0413,0.0414,0,0,0.0642,0.064,0.0731,0.083,0.0948,0.0962,0.0993,0.0918,0.0836,0.0691,0.0659,0.0437,0.0457,0.0451,0.04,0.048,0.0549,0.0452,0.0438,0.0618,0.0639,0.0651,0.0724,0,0,0,0,0]},{"header":{"parameterUnit":"m.s-1","parameterCategory":2,"la1":30.2991,"la2":30.254,"lo1":-89.0895,"lo2":-89.0444,"dy":0.0017,"dx":0.0017,"nx":28,"ny":28,"refTime":"2023-08-05T21:00:00:Z","depth":"2","parameterNumber":3,"parameterNumberName":"V-component_of_CURRENTS"},"data":[0,0,0,0,0,0,0,0,0,0,0,0,0,0,0,0,0,0,0,0,0,0,0,0,0,0,0,0,0,0,0,0,0,0,0,0,0,0,0,0,0,0,0,0,0,0,0,0,0,0,0,0,0,0,0,0,0,0,-0.0398,-0.0397,0,-0.0364,-0.0364,-0.0364,-0.0306,-0.0304,-0.0302,-0.0301,-0.0274,-0.0274,-0.0275,0,0,0,0,0,0,0,0,0,0,0,0,0,-0.023,-0.0235,-0.0398,-0.0397,-0.0396,-0.0364,-0.0364,-0.0364,-0.0306,-0.0304,-0.0302,-0.03,-0.0274,-0.0274,-0.0275,0,0,0,0,0,0,0,0,0,0,0,0,0,-0.0266,-0.0237,-0.0398,-0.0359,-0.0355,-0.0364,-0.0364,-0.0364,-0.0306,-0.0304,-0.0302,-0.0299,-0.0273,-0.0274,-0.0275,-0.033,0,0,-0.0279,-0.0279,0,0,0,0,0,0,0,0,-0.0264,-0.0273,-0.0366,-0.0362,-0.0357,-0.0332,-0.0294,-0.0351,-0.0307,-0.0331,-0.0301,-0.0298,-0.0292,-0.0292,-0.0298,-0.0328,-0.0327,-0.0279,-0.028,-0.028,-0.028,0,0,0,0,0,0,0,-0.0262,-0.0273,-0.039,-0.0365,-0.036,-0.028,-0.0285,-0.0304,-0.0329,-0.0328,-0.0323,-0.0311,-0.029,-0.0297,-0.0297,-0.0327,-0.0279,-0.028,-0.0281,-0.0281,-0.0146,-0.0142,0,0,0,0,0,0,-0.0269,-0.0273,-0.0391,-0.0388,-0.0298,-0.0286,-0.0291,-0.0347,-0.0329,-0.0322,-0.0313,-0.0308,-0.0296,-0.0295,-0.0295,-0.0274,-0.028,-0.0281,-0.0282,-0.015,-0.0145,-0.0141,0,0,0,0,0,0,-0.0267,-0.0283,-0.0392,-0.032,-0.0327,-0.0292,-0.0354,-0.0347,-0.033,-0.0316,-0.031,-0.0299,-0.0294,-0.0294,-0.0334,-0.0275,-0.0282,-0.0283,-0.0155,-0.0149,-0.0143,-0.0285,0,0,0,0,0,0,-0.0264,-0.0284,-0.0292,-0.0324,-0.0332,-0.0349,-0.0355,-0.0348,-0.0325,-0.0318,-0.0303,-0.0299,-0.0292,-0.0333,-0.0335,-0.0277,-0.0283,-0.0161,-0.0153,-0.0145,-0.0286,-0.0284,-0.0283,0,0,0,0,0,-0.0259,-0.0237,-0.0295,-0.0305,-0.0359,-0.0347,-0.0342,-0.031,-0.0326,-0.0294,-0.0342,-0.0298,-0.0276,-0.0337,-0.0339,-0.0278,-0.0165,-0.0155,-0.0146,-0.0286,-0.0284,-0.0283,0,0,0,0,0,0,-0.0145,-0.0232,-0.0293,-0.0301,-0.0319,-0.0333,-0.0274,-0.031,-0.0324,-0.0316,-0.0342,-0.0342,-0.0351,-0.0277,-0.0342,-0.019,-0.0172,-0.0163,-0.0277,-0.0275,-0.0274,-0.0186,-0.0284,0,0,0,0,0,-0.0145,-0.0178,-0.024,-0.0252,-0.0247,-0.0285,-0.0268,-0.0273,-0.0299,-0.0299,-0.0301,-0.0278,-0.0313,-0.0274,-0.0277,-0.0234,-0.0224,-0.0149,-0.0148,-0.0149,-0.0064,-0.0109,-0.0109,-0.0109,-0.0109,-0.011,0,0,-0.0123,-0.0159,-0.0189,-0.0232,-0.024,-0.0238,-0.0266,-0.0231,-0.0231,-0.0299,-0.0272,-0.0327,-0.0318,-0.0295,-0.0269,-0.0221,-0.0148,-0.0137,-0.014,-0.0051,-0.01,-0.0101,-0.0102,-0.0103,-0.0104,-0.0105,0,0,-0.0057,-0.0113,-0.0112,-0.0124,-0.0127,-0.0155,-0.0153,-0.0168,-0.0152,-0.0177,-0.0243,-0.0269,-0.0239,-0.0243,-0.0247,-0.0215,-0.0198,-0.0157,-0.0036,-0.0087,-0.009,-0.0092,-0.0145,-0.015,-0.0091,-0.0091,-0.0092,0,-0.001,-0.0066,-0.0094,-0.0076,-0.0079,-0.0128,-0.012,-0.0117,-0.0147,-0.0146,-0.0139,-0.0206,-0.0202,-0.0252,-0.0196,-0.0219,-0.024,-0.0091,-0.01,-0.01,-0.01,-0.0153,-0.0157,-0.0097,-0.0096,-0.0096,-0.0095,0,0.003,0.0002,0.0031,-0.0017,-0.0003,0.0005,-0.0016,0.0003,-0.0007,-0.0028,-0.0064,-0.0125,-0.0128,-0.0128,-0.0145,-0.0124,-0.0148,-0.0178,-0.0143,-0.0112,-0.0166,-0.0168,-0.0105,-0.0103,-0.0101,-0.01,0,0,0.0057,0.0048,0.0047,0.0035,0.0018,0.0029,0.0054,0.0043,0.0037,0.0042,0.0019,-0.0006,-0.0031,-0.0024,-0.0086,-0.0064,-0.0115,-0.0059,-0.006,-0.0175,-0.0232,-0.0136,-0.0131,-0.0183,-0.0182,-0.0181,-0.03,0,0.0077,0.0098,0.0091,0.0097,0.0097,0.0084,0.0092,0.0092,0.009,0.0076,0.0035,0.0001,0.0,-0.0022,-0.0022,-0.0108,-0.0111,-0.0077,-0.0177,-0.0178,-0.0154,-0.0125,-0.0173,-0.0269,-0.0302,-0.0302,-0.0303,0,0.0106,0.0095,0.0111,0.011,0.0115,0.0134,0.0131,0.0135,0.0117,0.0124,0.0096,0.0047,0.0051,0.0041,-0.0041,-0.0027,-0.0077,-0.0135,-0.0144,0.0026,-0.0081,-0.0278,-0.0272,-0.0306,-0.0306,-0.0306,-0.0306,0,0.0104,0.0124,0.013,0.0125,0.0114,0.0154,0.0165,0.0162,0.017,0.017,0.0188,0.0106,0.0092,0.0022,-0.003,-0.0031,-0.0146,-0.0198,-0.0186,-0.0184,-0.0182,-0.0177,-0.0239,-0.0239,-0.0239,-0.0238,-0.0238,0,0.0105,0.0107,0.0146,0.0125,0.0173,0.0175,0.0205,0.0231,0.0208,0.0233,0.0226,0.0219,0.0107,0.0027,-0.0042,-0.0098,-0.0166,-0.0119,-0.0181,-0.023,-0.0228,-0.0196,-0.0189,-0.0243,-0.0242,-0.0241,-0.024,0,0.0099,0.01,0.0116,0.0132,0.0175,0.0217,0.0274,0.0259,0.0292,0.0323,0.035,0.0305,0.0264,0.0107,-0.0037,-0.0083,-0.0178,-0.0201,-0.0234,-0.0289,-0.0188,-0.0186,-0.0167,-0.0164,-0.0161,-0.0159,-0.0157,0,0.0073,0.0084,0.0152,0.0191,0.0221,0.0282,0.0301,0.0316,0.0326,0.0394,0.041,0.0387,0.0379,0.0188,0.0036,-0.0118,-0.0139,-0.0191,-0.0141,-0.0103,-0.0168,-0.017,-0.0172,-0.026,-0.0259,-0.0258,-0.0258,0,0.0027,0.0083,0.0103,0.0207,0.0267,0.0301,0.0369,0.0389,0.0415,0.0503,0.0586,0.0592,0.0423,0.0244,0.0047,-0.0034,-0.0154,-0.0169,-0.0181,-0.0215,-0.0185,-0.025,-0.0251,-0.0252,-0.0253,-0.0253,-0.0253,-0.0253,0.0011,0.0049,0.0123,0.0249,0.0309,0.0355,0.0408,0.0471,0.0552,0.0635,0.0627,0.0634,0.0358,0.0111,-0.0011,-0.008,-0.0068,-0.0111,-0.0118,-0.0124,-0.0057,-0.0017,-0.0044,-0.0044,-0.0043,-0.0043,-0.0042,0,0.0008,0.0068,0.016,0.0273,0.0343,0.0404,0.0469,0.051,0.0677,0.0651,0.0708,0.0473,0.0278,0.0088,-0.0031,-0.0097,-0.0147,-0.0076,-0.0182,-0.0188,-0.0192,-0.0132,-0.0139,-0.0139,-0.0139,-0.0138,0,0,-0.0018,0.0044,0.0129,0.0293,0.0403,0.0491,0.0552,0.0661,0.0687,0.0682,0.0637,0.0388,0.0226,0.0076,-0.0066,-0.0068,-0.008,-0.0049,0.0027,-0.0089,-0.0092,-0.0225,-0.0137,0,0,0,0,0]}],[{"header":{"parameterUnit":"m.s-1","parameterCategory":2,"la1":30.2991,"la2":30.254,"lo1":-89.0895,"lo2":-89.0444,"dy":0.0017,"dx":0.0017,"nx":28,"ny":28,"refTime":"2023-08-05T21:00:00:Z","depth":"4","parameterNumber":2,"parameterNumberName":"U-component_of_CURRENTS"},"data":[0,0,0,0,0,0,0,0,0,0,0,0,0,0,0,0,0,0,0,0,0,0,0,0,0,0,0,0,0,0,0,0,0,0,0,0,0,0,0,0,0,0,0,0,0,0,0,0,0,0,0,0,0,0,0,0,0,0,-0.0651,-0.065,0,-0.06,-0.06,-0.0599,-0.0577,-0.0577,-0.0577,-0.0576,-0.0617,-0.0618,-0.0619,0,0,0,0,0,0,0,0,0,0,0,0,0,-0.0594,-0.0597,-0.0651,-0.065,-0.0649,-0.06,-0.06,-0.0599,-0.0577,-0.0577,-0.0577,-0.0576,-0.0616,-0.0618,-0.0619,0,0,0,0,0,0,0,0,0,0,0,0,0,-0.0593,-0.0597,-0.0651,-0.0629,-0.0626,-0.06,-0.06,-0.0599,-0.0577,-0.0577,-0.0576,-0.0576,-0.0616,-0.0618,-0.062,-0.0641,0,0,-0.0626,-0.0627,0,0,0,0,0,0,0,0,-0.0593,-0.0596,-0.0633,-0.0631,-0.0627,-0.0591,-0.0594,-0.0616,-0.0577,-0.06,-0.0576,-0.0576,-0.0614,-0.0616,-0.0612,-0.0643,-0.0645,-0.0626,-0.0627,-0.0628,-0.0629,0,0,0,0,0,0,0,-0.0594,-0.0597,-0.0635,-0.0632,-0.0628,-0.0575,-0.0576,-0.0597,-0.0615,-0.0598,-0.0596,-0.0583,-0.0614,-0.061,-0.0613,-0.0645,-0.0626,-0.0628,-0.0629,-0.063,-0.0721,-0.0722,0,0,0,0,0,0,-0.06,-0.0598,-0.0637,-0.0633,-0.0604,-0.0576,-0.0578,-0.0606,-0.0613,-0.0612,-0.0584,-0.0582,-0.0607,-0.0611,-0.0615,-0.065,-0.0628,-0.063,-0.0631,-0.072,-0.0721,-0.0722,0,0,0,0,0,0,-0.06,-0.0605,-0.0639,-0.0608,-0.0608,-0.0579,-0.061,-0.0605,-0.0609,-0.06,-0.0601,-0.0592,-0.0607,-0.0612,-0.0632,-0.0651,-0.0631,-0.0633,-0.0718,-0.072,-0.0722,-0.0715,0,0,0,0,0,0,-0.0599,-0.0607,-0.0629,-0.061,-0.061,-0.063,-0.061,-0.0605,-0.0599,-0.0597,-0.0608,-0.061,-0.0607,-0.0629,-0.0634,-0.0653,-0.0634,-0.0717,-0.0719,-0.0721,-0.0714,-0.0716,-0.0719,0,0,0,0,0,-0.0598,-0.0624,-0.0632,-0.0635,-0.0644,-0.0629,-0.0625,-0.0603,-0.06,-0.0605,-0.0606,-0.061,-0.0647,-0.0631,-0.0637,-0.0657,-0.0716,-0.0718,-0.0721,-0.0713,-0.0716,-0.0719,0,0,0,0,0,0,-0.0608,-0.0623,-0.0631,-0.0663,-0.0651,-0.0624,-0.0619,-0.0613,-0.0617,-0.0618,-0.0618,-0.0621,-0.0649,-0.0659,-0.0641,-0.0693,-0.0686,-0.069,-0.0678,-0.0681,-0.0683,-0.0697,-0.0636,0,0,0,0,0,-0.0624,-0.0649,-0.0648,-0.0669,-0.0669,-0.0652,-0.0643,-0.0632,-0.0627,-0.0628,-0.064,-0.0654,-0.0665,-0.0675,-0.0692,-0.0718,-0.0722,-0.074,-0.0743,-0.0744,-0.0761,-0.0784,-0.0789,-0.0731,-0.0731,-0.0731,0,0,-0.0618,-0.064,-0.0645,-0.0672,-0.0662,-0.0667,-0.0647,-0.0639,-0.0647,-0.0635,-0.0664,-0.0667,-0.0675,-0.0697,-0.0712,-0.0707,-0.0757,-0.0748,-0.0749,-0.0765,-0.0787,-0.0793,-0.0798,-0.0733,-0.0733,-0.0732,0,0,-0.062,-0.0658,-0.0675,-0.0675,-0.0674,-0.0675,-0.0679,-0.0675,-0.0679,-0.0699,-0.069,-0.0699,-0.0734,-0.0729,-0.0732,-0.0764,-0.0769,-0.0783,-0.0804,-0.0825,-0.0829,-0.0834,-0.0811,-0.0813,-0.0783,-0.0783,-0.0783,0,-0.062,-0.0655,-0.067,-0.0686,-0.0679,-0.0686,-0.0688,-0.0701,-0.0705,-0.071,-0.0713,-0.0741,-0.0746,-0.0753,-0.0765,-0.0768,-0.0775,-0.0784,-0.0826,-0.0831,-0.0835,-0.0812,-0.0814,-0.0783,-0.0783,-0.0783,-0.0783,0,-0.0621,-0.0655,-0.0661,-0.0699,-0.0697,-0.07,-0.0713,-0.0737,-0.0752,-0.0754,-0.0776,-0.0776,-0.0785,-0.0794,-0.0792,-0.0826,-0.0816,-0.0823,-0.0812,-0.084,-0.0813,-0.0816,-0.0783,-0.0783,-0.0783,-0.0783,0,0,-0.061,-0.0657,-0.0661,-0.0681,-0.0703,-0.0705,-0.0734,-0.0753,-0.077,-0.0793,-0.0803,-0.0823,-0.082,-0.0826,-0.082,-0.0847,-0.0866,-0.086,-0.0861,-0.0826,-0.0894,-0.0816,-0.0812,-0.0891,-0.0892,-0.0893,-0.0848,0,-0.0609,-0.0646,-0.0664,-0.0692,-0.0706,-0.0725,-0.0747,-0.0764,-0.0786,-0.0809,-0.0813,-0.0826,-0.0832,-0.0831,-0.0859,-0.0878,-0.0882,-0.0877,-0.0883,-0.0883,-0.0802,-0.0816,-0.0898,-0.085,-0.0851,-0.0851,-0.0852,0,-0.0599,-0.0632,-0.0651,-0.0699,-0.0706,-0.0725,-0.0756,-0.0778,-0.0808,-0.0815,-0.0828,-0.0834,-0.0861,-0.0866,-0.0904,-0.0908,-0.0905,-0.0914,-0.0912,-0.0853,-0.0813,-0.0828,-0.0857,-0.0857,-0.0856,-0.0856,-0.0856,0,-0.0572,-0.0625,-0.0645,-0.0654,-0.0703,-0.0719,-0.0752,-0.0777,-0.0794,-0.0821,-0.0829,-0.0853,-0.0865,-0.0896,-0.091,-0.092,-0.0948,-0.0948,-0.086,-0.0853,-0.0937,-0.0933,-0.0966,-0.0966,-0.0966,-0.0966,-0.0966,0,-0.0562,-0.0591,-0.0641,-0.0652,-0.068,-0.071,-0.0741,-0.0769,-0.0796,-0.08,-0.0833,-0.0828,-0.0887,-0.0901,-0.0914,-0.0891,-0.0939,-0.0867,-0.0847,-0.093,-0.0926,-0.0936,-0.0933,-0.0965,-0.0965,-0.0965,-0.0966,0,-0.0533,-0.0569,-0.0598,-0.0648,-0.0669,-0.0685,-0.0744,-0.0757,-0.0793,-0.0798,-0.0806,-0.083,-0.0833,-0.0859,-0.0888,-0.0876,-0.087,-0.0839,-0.0897,-0.088,-0.0754,-0.0751,-0.074,-0.0737,-0.0735,-0.0733,-0.0731,0,-0.0531,-0.0536,-0.0578,-0.0591,-0.062,-0.0662,-0.0679,-0.0738,-0.0746,-0.078,-0.0768,-0.078,-0.0782,-0.0748,-0.0793,-0.078,-0.0774,-0.0766,-0.0794,-0.0755,-0.0736,-0.0738,-0.0738,-0.0727,-0.0727,-0.0726,-0.0725,0,-0.0513,-0.0516,-0.0532,-0.0547,-0.0571,-0.0594,-0.0635,-0.0639,-0.0683,-0.0734,-0.0696,-0.0687,-0.0673,-0.0682,-0.0671,-0.067,-0.0784,-0.0741,-0.0746,-0.0772,-0.0739,-0.0723,-0.0727,-0.0717,-0.0718,-0.0719,-0.072,0,-0.0492,-0.0483,-0.0487,-0.0499,-0.0511,-0.0498,-0.0543,-0.0552,-0.0572,-0.0619,-0.06,-0.0607,-0.0641,-0.062,-0.0617,-0.0607,-0.0604,-0.0609,-0.0622,-0.0631,-0.0623,-0.0566,-0.0476,0,0,0,0,0,-0.0468,-0.0449,-0.0447,-0.0435,-0.0431,-0.0437,-0.0487,-0.0529,-0.0588,-0.0534,-0.0566,-0.0538,-0.0518,-0.0535,-0.0501,-0.0575,-0.0612,-0.0537,-0.0626,-0.0671,-0.068,-0.0684,0,0,0,0,0,0,-0.0453,-0.0441,-0.0428,-0.0366,-0.0337,-0.0326,-0.0348,-0.0393,-0.0384,-0.0447,-0.0436,-0.0494,-0.0483,-0.0502,-0.0476,-0.0484,-0.0531,-0.0559,-0.0558,-0.0665,-0.0674,-0.0682,-0.0689,0,0,0,0,0]},{"header":{"parameterUnit":"m.s-1","parameterCategory":2,"la1":30.2991,"la2":30.254,"lo1":-89.0895,"lo2":-89.0444,"dy":0.0017,"dx":0.0017,"nx":28,"ny":28,"refTime":"2023-08-05T21:00:00:Z","depth":"4","parameterNumber":3,"parameterNumberName":"V-component_of_CURRENTS"},"data":[0,0,0,0,0,0,0,0,0,0,0,0,0,0,0,0,0,0,0,0,0,0,0,0,0,0,0,0,0,0,0,0,0,0,0,0,0,0,0,0,0,0,0,0,0,0,0,0,0,0,0,0,0,0,0,0,0,0,-0.0143,-0.0143,0,-0.0101,-0.0101,-0.01,-0.0112,-0.0113,-0.0113,-0.0114,-0.0144,-0.0144,-0.0144,0,0,0,0,0,0,0,0,0,0,0,0,0,-0.0135,-0.0136,-0.0143,-0.0142,-0.0142,-0.0101,-0.01,-0.01,-0.0112,-0.0113,-0.0113,-0.0114,-0.0144,-0.0144,-0.0144,0,0,0,0,0,0,0,0,0,0,0,0,0,-0.0123,-0.0137,-0.0143,-0.0141,-0.014,-0.0101,-0.01,-0.01,-0.0112,-0.0113,-0.0114,-0.0115,-0.0144,-0.0144,-0.0144,-0.0126,0,0,-0.0145,-0.0145,0,0,0,0,0,0,0,0,-0.0124,-0.0123,-0.0142,-0.0141,-0.014,-0.0111,-0.0109,-0.0112,-0.0111,-0.0125,-0.0114,-0.0115,-0.0137,-0.0138,-0.013,-0.0127,-0.0129,-0.0145,-0.0145,-0.0145,-0.0145,0,0,0,0,0,0,0,-0.0125,-0.0125,-0.0129,-0.0141,-0.014,-0.0108,-0.0109,-0.0109,-0.0129,-0.0124,-0.0124,-0.0115,-0.0138,-0.013,-0.0131,-0.0129,-0.0145,-0.0145,-0.0145,-0.0146,-0.0171,-0.0172,0,0,0,0,0,0,-0.013,-0.0126,-0.013,-0.0127,-0.0132,-0.0108,-0.0108,-0.0121,-0.0127,-0.0128,-0.0115,-0.0116,-0.0129,-0.0131,-0.0132,-0.016,-0.0145,-0.0146,-0.0146,-0.0171,-0.0171,-0.0172,0,0,0,0,0,0,-0.013,-0.0131,-0.0132,-0.0122,-0.012,-0.0107,-0.0121,-0.012,-0.0117,-0.0119,-0.0122,-0.0114,-0.013,-0.0132,-0.0149,-0.016,-0.0146,-0.0146,-0.017,-0.0171,-0.0172,-0.0185,0,0,0,0,0,0,-0.0131,-0.0132,-0.0139,-0.0124,-0.0121,-0.0128,-0.012,-0.0118,-0.0109,-0.0111,-0.012,-0.0123,-0.0131,-0.0149,-0.0149,-0.016,-0.0146,-0.0169,-0.017,-0.0171,-0.0184,-0.0186,-0.0188,0,0,0,0,0,-0.0131,-0.0158,-0.014,-0.014,-0.0133,-0.0129,-0.0125,-0.0119,-0.0108,-0.0118,-0.0122,-0.0123,-0.0156,-0.0149,-0.015,-0.0161,-0.0169,-0.017,-0.0171,-0.0183,-0.0185,-0.0188,0,0,0,0,0,0,-0.0168,-0.016,-0.0141,-0.0166,-0.0148,-0.0131,-0.0138,-0.0118,-0.0123,-0.0128,-0.0126,-0.0131,-0.0155,-0.0152,-0.0145,-0.0172,-0.0163,-0.0165,-0.0172,-0.0174,-0.0176,-0.0192,-0.0146,0,0,0,0,0,-0.0172,-0.0179,-0.0165,-0.0174,-0.0177,-0.0149,-0.0142,-0.0133,-0.0133,-0.0135,-0.0138,-0.0144,-0.0157,-0.0161,-0.0177,-0.0181,-0.0178,-0.0189,-0.0191,-0.0193,-0.0207,-0.0206,-0.0209,-0.0176,-0.0176,-0.0176,0,0,-0.0183,-0.0177,-0.0181,-0.0179,-0.0168,-0.0173,-0.015,-0.0151,-0.0152,-0.0138,-0.0154,-0.0157,-0.0162,-0.0181,-0.019,-0.018,-0.02,-0.0195,-0.0196,-0.0209,-0.0207,-0.021,-0.0213,-0.0177,-0.0176,-0.0176,0,0,-0.0201,-0.0213,-0.0218,-0.0212,-0.0194,-0.0192,-0.0192,-0.0179,-0.0181,-0.0185,-0.0181,-0.0186,-0.02,-0.0203,-0.0206,-0.0224,-0.0217,-0.0228,-0.0243,-0.0241,-0.0243,-0.0246,-0.0238,-0.024,-0.022,-0.022,-0.022,0,-0.0197,-0.0216,-0.0218,-0.0219,-0.0212,-0.0204,-0.0205,-0.0212,-0.0201,-0.0202,-0.0204,-0.0212,-0.0214,-0.0224,-0.0235,-0.0229,-0.0227,-0.0231,-0.0243,-0.0245,-0.0248,-0.0239,-0.0241,-0.0221,-0.0221,-0.0221,-0.0221,0,-0.0215,-0.0226,-0.0238,-0.0237,-0.0237,-0.0243,-0.0247,-0.0259,-0.0258,-0.025,-0.0265,-0.0261,-0.0265,-0.0261,-0.0257,-0.0268,-0.0261,-0.0251,-0.0235,-0.0252,-0.0242,-0.0243,-0.0222,-0.0222,-0.0222,-0.0221,0,0,-0.0212,-0.0238,-0.0238,-0.0241,-0.0245,-0.0251,-0.0273,-0.0285,-0.0297,-0.0301,-0.0303,-0.0319,-0.0309,-0.0312,-0.0295,-0.0289,-0.0295,-0.0279,-0.0279,-0.027,-0.029,-0.0281,-0.0281,-0.0286,-0.0287,-0.0287,-0.0273,0,-0.0211,-0.0223,-0.0233,-0.0251,-0.0269,-0.0274,-0.0289,-0.0299,-0.0314,-0.0327,-0.0326,-0.033,-0.033,-0.0319,-0.0323,-0.0307,-0.0301,-0.03,-0.0278,-0.0277,-0.0266,-0.0284,-0.0289,-0.0274,-0.0274,-0.0274,-0.0274,0,-0.0225,-0.0233,-0.0243,-0.0264,-0.027,-0.0279,-0.0305,-0.0316,-0.034,-0.0344,-0.0357,-0.0355,-0.036,-0.0346,-0.0347,-0.0347,-0.0329,-0.0311,-0.031,-0.0303,-0.0272,-0.0257,-0.0277,-0.0277,-0.0276,-0.0276,-0.0276,0,-0.0226,-0.0248,-0.0256,-0.026,-0.0281,-0.0287,-0.03,-0.0321,-0.0343,-0.0353,-0.0367,-0.0371,-0.0378,-0.0364,-0.035,-0.0347,-0.0342,-0.0325,-0.0299,-0.0297,-0.0302,-0.0299,-0.0322,-0.0322,-0.0322,-0.0322,-0.0322,0,-0.0222,-0.0242,-0.0264,-0.0266,-0.0294,-0.0293,-0.0323,-0.0333,-0.0354,-0.0389,-0.0377,-0.0403,-0.0387,-0.0386,-0.0359,-0.0345,-0.0351,-0.0314,-0.0299,-0.0306,-0.0305,-0.0302,-0.03,-0.0321,-0.0321,-0.0321,-0.0322,0,-0.0228,-0.0233,-0.0266,-0.0284,-0.0296,-0.0317,-0.0353,-0.0382,-0.0384,-0.0429,-0.043,-0.0443,-0.0443,-0.0414,-0.0387,-0.0363,-0.0329,-0.0314,-0.0325,-0.0309,-0.0281,-0.028,-0.0289,-0.0289,-0.0289,-0.0288,-0.0288,0,-0.023,-0.0244,-0.0286,-0.031,-0.0322,-0.0359,-0.0387,-0.04,-0.0431,-0.0464,-0.0486,-0.0491,-0.0496,-0.0448,-0.0415,-0.0348,-0.0335,-0.0305,-0.03,-0.0297,-0.0281,-0.028,-0.0279,-0.0288,-0.0288,-0.0288,-0.0288,0,-0.025,-0.027,-0.0293,-0.0337,-0.0372,-0.0425,-0.0461,-0.0482,-0.0504,-0.0514,-0.0529,-0.0504,-0.0505,-0.0463,-0.0406,-0.0361,-0.0318,-0.0302,-0.0302,-0.0297,-0.0295,-0.0279,-0.0279,-0.0287,-0.0287,-0.0287,-0.0287,0,-0.0283,-0.0307,-0.0334,-0.0371,-0.0419,-0.0468,-0.0489,-0.0519,-0.054,-0.0553,-0.0568,-0.0546,-0.0541,-0.0471,-0.0427,-0.0375,-0.0361,-0.0325,-0.0323,-0.0324,-0.0336,-0.0339,-0.0341,0,0,0,0,0,-0.0315,-0.0332,-0.0368,-0.041,-0.0456,-0.0477,-0.053,-0.0546,-0.0564,-0.0572,-0.0563,-0.0552,-0.0494,-0.0476,-0.0423,-0.0431,-0.0358,-0.0366,-0.0316,-0.0282,-0.0283,-0.0291,0,0,0,0,0,0,-0.034,-0.0371,-0.0371,-0.0428,-0.0455,-0.0513,-0.054,-0.056,-0.0555,-0.0561,-0.0531,-0.0517,-0.0463,-0.0517,-0.0413,-0.0402,-0.0358,-0.0341,-0.034,-0.0282,-0.0283,-0.0283,-0.0292,0,0,0,0,0]}]]